Starlink 6208

operational
NORAD ID: 56895 Int'l Des: 2023-083 Owner: SPXS Country: US Constellation: starlink
LEOCIRCULAR

Über Starlink 6208

Beschreibung wird geladen...

Live-Position

3D-Globus wird geladen...

Nächste Überflüge

Höhenverlauf

Altitude vs Time

uPlot chart will show altitude changes over time

Zweizeiliger Elementsatz

1 56895U 23083V 25300.73607454 .00001356 00000-0 11546-3 0 9990
2 56895 43.0029 83.9582 0001178 267.3916 92.6791 15.02535229131675
Epoch: 27. Okt. 2025 • Age: 32 hours

Aktueller Status

Höhe 571.3 km
Geschwindigkeit 7.58 km/s
Subsatellitenpunkt -42.42°S, 56.09°W
Startdatum 12. Juni 2023
Alter 2.3 years
Typ internet

Technische Details

Klassifizierung Payload
Masse 305.00 kg
Trockenmasse 290.00 kg
Gesamtmasse 305.00 kg
Länge 0.20 m
Durchmesser 2.80 m
Spannweite 9.00 m
Form Box + pan
Hersteller SPXS
Bus-Typ Starlink
Phasenstatus In Orbit
Besitzer/Staat SPXS/US

Große Konstellationen

Loading constellations...